Presure
196 205 218 201 208 206 213 204 205 179 212 230 218 217 180 218 225 279 227 230 235 209 201 198 189 191 187 200 201 209 214 222 214 336 251 179 189 182 189 188 204 191 172 177
200 217 201 194 207 210 203 205 204 198 208 219 138 194 213 213 213 243 234 221 229 205 200 201 196 200 193 203 195 206 216 211 229 334 246 208 192 198 180 179 178 188 170 173
210 215 202 210 209 204 208 205 203 213 206 216 226 225 223 222 235 217 228 224 224 203 200 198 200 191 199 193 199 209 205 215 229 214 238 226 200 194 172 186 178 175 176 173
225 209 224 215 203 215 202 195 210 207 213 215 224 209 214 213 228 207 216 221 228 195 202 201 193 199 199 200 202 196 192 211 216 293 240 218 227 185 197 173 183 183 179 178
238 215 241 244 227 222 213 209 221 226 211 240 226 234 193 230 223 207 186 224 219 220 193 201 195 197 196 207 200 194 185 207 211 277 280 225 214 195 178 194 172 181 174 176
227 237 228 234 238 239 231 232 215 217 247 234 235 247 248 241 219 259 250 232 223 214 202 205 197 194 190 193 194 191 206 204 215 207 288 229 214 212 191 182 185 177 188 180
241 227 236 243 228 226 240 233 230 240 255 247 233 142 251 209 314 271 229 226 221 231 219 207 202 197 197 195 200 204 206 214 206 210 234 266 225 202 204 195 185 176 173 181
248 244 238 232 229 220 225 240 243 249 248 245 253 269 238 264 290 254 225 223 219 217 218 209 203 194 194 198 184 210 207 198 209 208 210 224 249 221 206 200 185 184 174 167
291 288 269 254 251 240 234 244 252 245 255 257 254 238 234 319 264 242 221 224 222 219 207 228 205 205 193 179 194 194 188 201 211 203 192 239 276 225 215 206 196 179 195 167
302 297 283 263 254 257 251 238 235 247 240 237 241 236 305 287 254 231 220 220 216 223 220 208 210 210 199 186 194 183 197 194 205 197 200 202 231 253 228 206 201 202 189 200
300 301 287 285 282 264 255 251 250 245 241 251 232 238 296 269 246 229 220 220 220 216 218 191 211 211 198 191 186 191 182 188 193 204 193 202 208 225 239 213 208 215 209 199
330 324 298 293 280 278 272 251 251 245 241 242 242 276 284 258 235 228 217 215 220 214 202 206 201 210 203 180 187 189 193 187 193 199 201 193 201 201 213 232 205 201 212 211
318 339 302 307 291 284 277 274 269 258 257 253 267 277 273 250 230 226 217 213 216 215 214 197 194 206 208 195 205 201 200 197 193 189 183 197 184 191 208 207 200 221 225 222
305 298 296 302 308 307 300 287 270 281 310 298 283 264 264 242 229 222 217 205 208 204 214 204 198 196 199 210 191 198 202 190 188 194 184 184 191 196 204 195 219 211 190 196
297 300 312 283 292 311 319 311 304 295 286 269 257 260 253 242 229 222 220 206 207 217 215 216 203 183 190 199 177 202 195 168 188 184 193 189 182 193 203 194 200 203 208 204
292 277 280 268 272 293 308 301 289 280 277 257 251 248 249 244 230 219 223 214 210 215 202 137 210 208 181 194 203 183 211 192 188 195 181 172 182 185 189 199 198 181 180 185
297 287 282 265 264 250 288 301 277 273 264 256 250 244 239 232 228 224 217 207 211 220 213 215 212 203 192 198 177 179 183 193 194 199 190 197 177 177 192 185 195 201 200 196
299 298 267 270 257 276 275 271 265 251 246 261 245 238 234 230 226 215 222 211 205 214 205 181 220 200 210 193 190 189 189 198 197 189 198 208 196 190 197 161 179 192 194 195
298 297 273 278 262 244 251 272 262 247 251 240 228 232 234 233 227 221 218 222 221 207 207 206 217 205 205 208 201 207 212 216 198 193 182 192 213 207 191 185 186 192 193 196
295 289 294 251 272 245 273 283 264 243 234 259 247 237 235 236 237 227 223 230 233 238 236 222 222 198 209 212 210 213 216 201 203 198 202 187 187 175 182 193 198 204 199 192
294 292 306 302 277 275 271 254 240 249 242 250 246 237 231 226 230 217 229 234 235 234 226 224 218 204 207 216 212 210 206 202 204 205 204 196 196 199 204 199 199 197 210 210
303 295 306 280 253 237 275 263 253 237 257 248 241 238 231 226 232 222 233 232 229 226 224 219 214 213 219 226 224 215 216 214 204 197 202 196 192 196 197 195 204 196 211 191
298 297 298 271 267 296 262 268 265 253 245 233 246 241 235 231 234 228 220 221 218 214 214 212 217 226 231 228 221 221 222 221 214 208 206 204 205 206 197 202 198 207 198 206
306 302 286 263 269 277 290 259 256 253 247 240 238 240 237 223 224 224 226 224 223 223 222 224 226 230 231 228 224 224 222 223 219 221 221 212 214 211 209 211 205 205 204 209
303 296 276 268 267 284 267 280 257 148 254 232 238 247 243 234 227 226 225 233 230 229 227 227 229 230 231 201 236 235 216 228 225 226 224 221 216 217 216 215 215 215 214 217
316 292 269 264 263 266 270 275 266 253 235 248 259 180 244 239 237 235 235 234 234 235 235 233 225 234 241 242 241 238 238 239 237 233 235 235 234 229 220 220 223 221 217 220
Wind_Speed
95 92 91 96 97 90 88 79 75 56 84 83 72 45 56 45 49 51 51 50 49 42 50 43 36 39 33 36 29 29 27 22 25 21 34 40 53 49 53 55 50 52 52 54
96 93 92 92 92 92 81 81 78 74 85 78 33 48 44 45 41 43 55 55 46 43 50 46 35 41 36 38 25 30 26 23 20 17 36 60 57 62 52 53 52 51 47 58
105 95 94 95 94 89 91 82 81 84 81 75 71 53 61 58 57 44 54 55 46 47 49 46 40 42 39 29 28 31 22 24 22 25 34 53 62 62 46 59 59 55 51 57
102 86 100 102 87 96 84 78 89 82 83 77 71 38 48 52 48 48 44 55 48 46 48 48 36 45 39 37 33 25 20 23 18 20 33 44 47 59 59 50 61 64 58 60
103 92 104 94 95 99 87 88 89 89 76 83 81 77 49 68 54 52 51 56 53 50 48 49 42 42 36 42 33 29 22 23 18 20 19 45 49 65 54 60 52 63 62 66
96 104 100 94 94 92 86 86 79 78 81 79 75 77 58 50 60 48 51 56 57 51 56 53 47 40 33 33 30 28 27 23 22 14 14 40 52 51 67 62 66 60 63 66
107 97 100 98 85 82 89 87 83 77 74 70 67 32 46 59 48 44 51 53 55 55 53 50 49 41 38 38 34 32 28 23 20 16 19 30 45 51 57 65 70 62 59 66
110 100 95 92 87 86 80 88 81 76 68 68 70 59 42 47 49 47 53 54 58 50 45 52 50 38 37 37 26 27 24 21 20 18 19 22 43 49 56 63 72 73 64 49
93 92 94 91 87 91 84 77 76 73 65 63 49 41 48 46 49 53 58 53 55 50 43 48 48 44 36 32 33 30 23 25 21 19 26 16 9 47 53 60 70 67 68 52
83 81 81 84 87 84 83 74 62 65 51 45 41 41 40 43 52 56 57 53 51 52 49 45 48 47 40 35 32 26 32 25 21 20 20 21 14 16 43 58 61 66 73 70
74 76 77 81 79 77 75 74 76 67 49 53 42 39 45 44 53 58 58 50 49 44 42 43 46 44 41 37 31 30 25 26 23 22 21 23 22 17 23 46 54 60 65 73
61 66 75 76 73 72 70 73 79 57 51 49 43 43 47 50 56 57 56 51 47 42 39 43 46 46 46 40 34 37 35 29 27 25 24 22 24 26 27 32 55 51 55 58
46 35 63 65 69 67 68 66 65 56 60 51 45 46 50 54 58 57 55 53 46 42 44 47 44 44 44 33 41 40 38 34 33 26 27 26 30 29 30 33 34 38 46 55
51 56 56 53 52 51 54 56 55 50 48 43 41 49 51 57 61 58 53 52 49 44 47 44 42 40 38 37 34 38 45 40 34 35 27 32 32 32 33 32 30 36 39 40
46 49 47 42 41 42 40 41 41 41 44 42 46 51 53 61 60 59 54 54 54 46 45 43 45 36 32 38 38 37 43 39 40 37 38 32 35 34 35 35 35 33 33 38
55 55 43 39 39 40 38 39 44 44 45 48 50 54 56 56 57 56 50 51 54 53 45 34 47 49 50 48 50 31 39 39 43 46 38 41 39 39 38 40 42 42 41 40
61 55 47 44 45 46 40 44 45 47 51 55 57 57 57 55 56 59 53 54 60 58 46 40 48 48 54 53 42 43 42 47 43 47 48 51 49 42 40 43 42 44 42 42
59 58 49 47 48 48 45 49 48 47 48 47 48 52 54 52 56 56 57 55 58 61 51 50 49 51 58 61 56 54 53 58 53 52 49 50 48 45 47 53 47 47 46 44
56 53 50 52 51 49 47 51 54 52 51 52 54 57 58 59 59 60 59 58 63 65 59 53 55 54 53 62 65 69 67 56 54 46 39 43 48 50 52 53 52 51 51 52
53 55 55 50 53 51 55 49 52 50 49 57 60 60 58 54 55 56 59 61 62 66 63 58 53 45 53 56 54 57 59 59 61 57 58 51 52 53 55 58 59 60 63 61
56 55 54 53 55 58 56 48 52 51 52 57 57 57 58 56 56 56 57 59 59 59 60 59 59 53 53 59 58 60 61 60 62 62 63 57 59 61 63 63 61 56 60 61
52 51 53 52 49 49 60 58 56 51 63 56 54 54 56 56 56 54 56 57 58 58 59 62 61 61 64 68 67 62 63 63 63 62 62 61 61 66 65 64 69 63 70 57
49 51 55 54 61 64 56 63 59 52 52 52 63 64 62 57 56 55 52 54 56 56 57 57 58 62 69 70 65 66 70 68 65 65 67 64 67 68 68 71 70 69 66 70
47 51 55 53 55 55 64 57 58 52 51 50 55 60 57 54 56 56 59 59 61 63 63 65 68 71 72 73 71 71 70 73 73 74 73 70 70 71 71 75 75 77 77 80
43 52 56 55 55 57 58 65 56 27 59 56 59 60 58 60 60 61 61 65 65 65 66 66 70 72 71 58 78 77 68 72 69 72 72 72 73 76 79 80 80 82 82 84
36 56 57 55 56 57 60 62 65 58 54 61 64 39 62 63 64 65 65 67 68 70 71 71 63 68 78 82 84 83 81 80 80 75 80 82 84 83 79 83 87 85 82 84
Wind_Direction
267 269 265 266 266 268 269 274 276 270 275 276 283 284 263 287 297 288 257 256 254 253 258 264 269 276 277 287 292 299 295 289 259 274 230 238 224 226 224 226 232 227 241 241
271 265 265 267 269 269 273 274 275 275 276 279 267 285 287 278 279 271 256 254 248 250 256 262 266 271 277 284 286 296 298 272 283 298 228 221 222 221 228 234 236 231 243 241
266 264 266 266 265 269 270 274 275 275 278 282 282 287 284 292 285 253 254 249 248 244 251 261 263 267 272 280 283 291 288 288 299 251 223 218 219 224 238 226 233 237 237 243
266 266 262 261 267 265 268 272 272 278 279 282 280 261 282 273 270 249 246 249 245 253 247 254 257 261 268 275 279 274 264 291 281 308 221 220 214 229 229 238 227 232 239 240
265 267 265 265 264 263 266 265 267 266 272 270 275 276 250 275 261 247 255 242 245 235 249 249 253 258 264 273 273 275 255 289 265 309 251 219 218 220 238 228 241 234 240 243
267 266 269 270 267 267 264 266 267 269 266 271 270 271 272 264 253 239 222 234 243 235 236 241 247 254 256 264 267 269 283 284 285 259 292 225 221 220 225 235 231 237 236 241
260 262 264 264 269 270 269 269 268 271 266 266 269 268 274 249 243 220 232 238 246 242 238 242 245 248 256 263 267 277 285 286 272 271 258 233 223 225 221 225 233 238 244 239
259 260 261 261 262 265 267 270 273 270 266 263 267 273 263 261 232 216 226 231 239 246 240 237 243 247 252 260 253 274 278 280 280 282 244 245 225 223 224 223 232 237 243 252
249 250 252 256 254 258 264 267 262 265 264 266 269 258 250 228 223 222 226 231 237 241 240 237 245 247 250 244 264 269 266 281 282 278 239 304 304 223 225 229 229 237 236 246
248 248 249 251 252 251 256 259 260 264 261 256 258 252 244 226 220 224 231 229 234 238 243 236 240 245 249 250 260 256 273 272 279 265 281 281 282 245 227 228 233 235 238 236
245 245 246 246 247 250 251 255 257 257 258 264 242 248 225 215 214 224 232 233 234 235 238 238 242 240 244 253 251 257 254 268 274 268 263 277 276 257 234 236 235 240 239 242
239 243 244 246 247 247 245 243 248 249 253 252 245 237 217 211 213 219 228 233 233 234 231 239 238 237 238 243 252 260 262 256 267 262 262 260 268 264 254 244 242 248 250 249
231 235 238 241 244 244 243 246 248 251 254 252 242 220 209 208 215 218 227 233 232 233 232 233 244 247 246 263 266 271 265 256 262 252 247 260 247 257 265 261 253 254 253 250
229 238 238 241 246 243 246 245 246 244 235 225 213 210 207 207 213 219 218 233 230 225 232 230 240 247 248 246 253 268 271 265 246 264 249 252 261 265 268 259 262 258 249 251
223 233 230 236 232 231 229 228 223 219 220 211 208 207 206 209 213 222 216 226 239 232 236 228 231 241 250 251 233 255 248 238 263 254 263 255 254 264 265 258 260 259 263 259
209 227 226 223 225 230 223 219 210 207 208 201 204 208 206 210 213 224 224 229 232 238 233 236 228 225 240 235 235 233 236 250 250 258 251 241 253 259 261 263 262 255 255 260
208 217 217 210 212 219 219 203 202 201 200 201 201 208 210 209 215 220 222 225 236 232 236 225 226 222 230 234 241 236 250 259 253 253 254 260 252 258 262 256 267 268 270 264
211 215 207 208 208 210 209 197 197 199 207 207 208 213 218 213 216 227 227 221 234 243 233 224 231 227 222 234 242 248 252 254 250 252 254 256 258 260 264 253 256 264 269 269
212 212 207 205 204 211 207 196 193 201 203 204 211 213 216 215 216 222 231 232 229 232 235 228 234 231 229 226 235 242 247 243 250 251 260 259 262 257 258 258 261 269 271 270
205 210 210 215 204 213 214 203 200 206 209 198 203 214 219 219 221 222 229 234 234 236 236 243 242 241 243 242 242 246 240 245 243 254 251 257 260 251 259 261 260 263 264 267
204 207 207 205 205 206 211 199 206 211 213 211 208 210 218 222 221 224 228 231 236 234 243 245 245 245 248 248 244 241 242 246 251 252 255 256 258 260 262 264 265 262 268 267
204 204 204 203 206 207 206 208 207 207 211 216 220 220 223 224 227 228 229 230 233 238 239 241 244 246 248 246 246 245 244 243 245 250 250 254 256 257 258 259 263 266 268 266
203 202 202 202 207 207 206 209 210 209 209 214 217 221 225 229 229 231 234 235 238 240 244 249 253 251 248 247 250 251 252 252 250 249 253 254 255 252 257 259 264 265 269 272
200 200 200 206 212 209 208 210 212 211 213 218 223 226 228 231 234 236 237 238 240 242 245 248 250 250 251 253 255 255 257 255 257 256 252 256 257 258 260 260 261 264 267 269
194 199 201 205 210 210 211 214 215 214 216 217 223 226 227 230 234 236 239 239 242 244 246 248 250 252 254 255 253 254 258 258 259 258 256 254 257 259 260 262 263 264 266 267
181 197 201 204 209 213 214 215 216 216 220 225 225 226 227 231 234 237 239 241 243 245 248 250 254 255 251 253 256 257 258 259 260 260 260 261 262 262 262 264 266 267 269 270